Location: ?????????
(53.2086°N, 54.0693°E)
Time: 16:28:11
(UTC+00:00)

USA 215 - Pass Details

Date: 08 December 2019
Orbit: 1099 x 1109 km, 123.0° (Epoch: 20 January)

Event Time Altitude Azimuth Distance (km) Brightness Sun altitude
Exits shadow 13:24:57 14° 65° (ENE) 2,707 4.6 -10.9°
Maximum altitude 13:30:49 75° 150° (SSE) 1,143 3.3 -11.7°
Drops below altitude 10° 13:37:22 10° 236° (SW) 2,963 6.9 -12.6°
Sets 13:39:52 0° 238° (WSW) 3,920 8.0 -12.9°
